Location: Elliot Lake
(46.3862°N, 82.6509°W)
Time: 17:00:24
(UTC-04:00)

ISS - Visible Passes

Search period start: 25 September 2020 00:00
Search period end: 05 October 2020 00:00
Orbit: 419 x 420 km, 51.6° (Epoch: 26 September)

Date Brightness Start Highest point End Pass type
(mag) Time Alt. Az. Time Alt. Az. Time Alt. Az.
25 Sep -2.4 21:10:21 10° WNW 21:13:26 32° N 21:13:59 30° NNE visible
26 Sep -2.4 20:22:49 10° WNW 20:25:55 32° N 20:28:21 14° ENE visible
26 Sep -1.2 21:59:56 10° WNW 22:01:18 21° NW 22:01:18 21° NW visible
27 Sep -2.7 21:12:31 10° WNW 21:15:40 37° N 21:15:40 37° N visible
28 Sep -2.5 20:25:04 10° WNW 20:28:11 33° N 20:30:01 19° ENE visible
28 Sep -0.9 22:01:55 10° WNW 22:02:58 19° WNW 22:02:58 19° WNW visible
29 Sep -2.5 19:37:33 10° WNW 19:40:38 32° N 19:43:42 10° ENE visible
29 Sep -3.1 21:14:30 10° WNW 21:17:20 51° NNW 21:17:20 51° NNW visible
30 Sep -3.1 20:27:05 10° WNW 20:30:21 45° NNE 20:31:43 28° ENE visible
30 Sep -0.7 22:03:57 10° WNW 22:04:41 15° WNW 22:04:41 15° WNW visible
01 Oct -2.8 19:39:37 10° WNW 19:42:49 37° NNE 19:46:00 10° E visible
01 Oct -2.9 21:16:26 10° WNW 21:19:06 49° W 21:19:06 49° W visible
02 Oct -3.8 20:28:58 10° WNW 20:32:22 83° NNE 20:33:34 37° ESE visible
02 Oct -0.3 22:06:26 10° W 22:06:32 10° W 22:06:32 10° W visible
03 Oct -3.5 19:41:31 10° WNW 19:44:52 59° NNE 19:48:05 11° ESE visible
03 Oct -1.9 21:18:35 10° W 21:21:03 27° SW 21:21:03 27° SW visible
04 Oct -2.8 20:30:55 10° WNW 20:34:09 43° SW 20:35:39 25° SSE visible
